Content
SEND FEEDBACK

Daily
Averages
Monthly
Summary
United States of America

CLARK FORK - EAST, IDAHO


Home > North America > United States > Idaho
Elevation: 2130 feet     Latitude: 48 09N     Longitude: 116 10W

WEATHER
 
SELECT A DAY
Number of Records: 74,614;   Date Range: 1/1/11 - 9/30/14
 
SHARE

PRINT THIS DATA

[ ← Previous Day ]
WEATHER ALMANAC - FEBRUARY 13, 2013
[ Next Day → ]
[ °C ]   °F
Weather ElementAverageHighLow
Temperature39.6 °F46.4 °F (12:55 pm)32 °F (11:15 pm)
Dewpoint30.4 °F33.8 °F (12:35 am)24.8 °F (3:55 pm)
Humidity70.9 %87 % (11:15 pm)46 % (2:55 pm)
Barometer30.16 in30.30 in (11:55 pm)30.06 in (2:35 am)
Wind Speed7.6 mph18.4 mph (2:35 am)
Wind Gust25.3 mph (2:35 am)
Weather ElementAverage
Visibility10 mi
Wind DirectionSSW (201 °)

Weather ElementTotal
Precipitation---
Heating Degree Days25.8 (Base 65)
Averaged from 71 records on February 13, 2013
WEATHER CONDITIONS BREAKOUT
WIND DIRECTION BREAKOUT
WEATHER BY HOUR - FEBRUARY 13, 2013
[ °C ]   °F
Local TimeTemperatureDewpointHumidityBarometerVisibilityWind DirectionWind SpeedGust SpeedPrecipitationEventsConditions
12:35 AM41.0 °F33.8 °F76 %30.09 in10.0 miSW (220°)8.1 mphOvercast
12:55 AM41.0 °F33.8 °F76 %30.09 in10.0 miSSW (210°)10.4 mphOvercast
1:15 AM41.0 °F33.8 °F76 %30.08 in10.0 miSSW (200°)8.1 mphOvercast
1:35 AM41.0 °F33.8 °F76 %30.08 in10.0 miSSW (200°)10.4 mph16.1 mphOvercast
1:55 AM39.2 °F33.8 °F81 %30.08 in10.0 miSouth (190°)15.0 mph20.7 mphOvercast
2:15 AM39.2 °F33.8 °F81 %30.07 in10.0 miSouth (180°)17.3 mph23.0 mphOvercast
2:35 AM39.2 °F33.8 °F81 %30.06 in10.0 miSouth (180°)18.4 mph25.3 mphOvercast
2:55 AM39.2 °F33.8 °F81 %30.07 in10.0 miSouth (190°)16.1 mph23.0 mphOvercast
3:15 AM39.2 °F33.8 °F81 %30.07 in10.0 miSouth (190°)15.0 mph20.7 mphOvercast
3:35 AM39.2 °F32.0 °F75 %30.07 in10.0 miSouth (190°)11.5 mph19.6 mphOvercast
3:55 AM39.2 °F33.8 °F81 %30.08 in10.0 miSouth (190°)13.8 mph19.6 mphOvercast
4:15 AM37.4 °F32.0 °F81 %30.08 in10.0 miSouth (190°)10.4 mph20.7 mphOvercast
4:35 AM37.4 °F32.0 °F81 %30.09 in10.0 miSouth (190°)13.8 mph25.3 mphOvercast
4:55 AM37.4 °F32.0 °F81 %30.09 in10.0 miSSW (200°)11.5 mph19.6 mphOvercast
5:15 AM37.4 °F32.0 °F81 %30.09 in10.0 miSouth (170°)13.8 mph19.6 mphOvercast
5:35 AM37.4 °F32.0 °F81 %30.10 in10.0 miSouth (180°)15.0 mphOvercast
5:55 AM37.4 °F32.0 °F81 %30.11 in10.0 miSouth (180°)11.5 mph18.4 mphOvercast
6:15 AM37.4 °F32.0 °F81 %30.11 in10.0 miSouth (180°)9.2 mphOvercast
6:35 AM37.4 °F32.0 °F81 %30.12 in10.0 miSSW (200°)9.2 mphOvercast
6:55 AM37.4 °F32.0 °F81 %30.12 in10.0 miSSW (210°)8.1 mphOvercast
7:15 AM37.4 °F32.0 °F81 %30.13 in10.0 miWSW (240°)4.6 mphOvercast
7:35 AM37.4 °F32.0 °F81 %30.14 in10.0 miWSW (250°)5.8 mphOvercast
7:55 AM37.4 °F32.0 °F81 %30.14 in10.0 miWest (270°)5.8 mphOvercast
8:15 AM39.2 °F32.0 °F75 %30.15 in10.0 miWest (270°)5.8 mphScattered Clouds
8:35 AM39.2 °F32.0 °F75 %30.15 in10.0 miWest (260°)9.2 mphClear
8:55 AM41.0 °F32.0 °F70 %30.16 in10.0 miWest (270°)8.1 mphClear
9:15 AM41.0 °F32.0 °F70 %30.16 in10.0 miWest (260°)6.9 mphClear
9:35 AM41.0 °F32.0 °F70 %30.16 in10.0 miWest (270°)6.9 mphClear
9:55 AM42.8 °F32.0 °F66 %30.16 in10.0 miSW (230°)8.1 mphClear
10:15 AM42.8 °F32.0 °F66 %30.17 in10.0 miWSW (240°)6.9 mphClear
10:35 AM42.8 °F32.0 °F66 %30.17 in10.0 miWSW (240°)5.8 mphClear
10:55 AM44.6 °F32.0 °F61 %30.16 in10.0 miWSW (240°)9.2 mphScattered Clouds
11:15 AM44.6 °F32.0 °F61 %30.16 in10.0 miSSW (200°)4.6 mphScattered Clouds
11:35 AM44.6 °F32.0 °F61 %30.16 in10.0 miSouth (190°)6.9 mphMostly Cloudy
11:55 AM44.6 °F30.2 °F57 %30.16 in10.0 miWSW (240°)6.9 mphOvercast
12:15 PM44.6 °F30.2 °F57 %30.15 in10.0 miSSW (200°)3.5 mphOvercast
12:35 PM44.6 °F30.2 °F57 %30.15 in10.0 miSW (220°)3.5 mphOvercast
12:55 PM46.4 °F30.2 °F53 %30.14 in10.0 miSSW (210°)9.2 mphOvercast
1:15 PM46.4 °F30.2 °F53 %30.14 in10.0 miSW (220°)8.1 mphMostly Cloudy
1:35 PM46.4 °F30.2 °F53 %30.14 in10.0 miSSW (210°)9.2 mphMostly Cloudy
1:55 PM46.4 °F28.4 °F50 %30.14 in10.0 miSSW (210°)10.4 mphOvercast
2:15 PM46.4 °F28.4 °F50 %30.14 in10.0 miSSW (200°)5.8 mphMostly Cloudy
2:35 PM46.4 °F28.4 °F50 %30.14 in10.0 miSW (230°)5.8 mphMostly Cloudy
2:55 PM46.4 °F26.6 °F46 %30.15 in10.0 miSW (230°)3.5 mphMostly Cloudy
3:15 PM44.6 °F26.6 °F49 %30.15 in10.0 miCalmScattered Clouds
3:35 PM44.6 °F26.6 °F49 %30.16 in10.0 miSW (230°)4.6 mphScattered Clouds
3:55 PM44.6 °F24.8 °F46 %30.16 in10.0 miSW (230°)5.8 mphScattered Clouds
4:15 PM44.6 °F24.8 °F46 %30.16 in10.0 miSouth (190°)4.6 mphMostly Cloudy
4:35 PM44.6 °F26.6 °F49 %30.17 in10.0 miCalmOvercast
4:55 PM42.8 °F28.4 °F57 %30.17 in10.0 miCalmMostly Cloudy
5:15 PM37.4 °F30.2 °F75 %30.18 in10.0 miCalmScattered Clouds
5:35 PM37.4 °F30.2 °F75 %30.19 in10.0 miCalmMostly Cloudy
5:55 PM35.6 °F30.2 °F81 %30.19 in10.0 miWest (270°)4.6 mphOvercast
6:15 PM37.4 °F28.4 °F70 %30.20 in10.0 miWest (260°)4.6 mphOvercast
6:35 PM35.6 °F28.4 °F75 %30.20 in10.0 miCalmOvercast
6:55 PM35.6 °F28.4 °F75 %30.21 in10.0 miWSW (240°)3.5 mphOvercast
7:15 PM37.4 °F28.4 °F70 %30.21 in10.0 miWSW (250°)6.9 mphOvercast
7:35 PM37.4 °F28.4 °F70 %30.22 in10.0 miWest (260°)8.1 mphOvercast
7:55 PM37.4 °F28.4 °F70 %30.23 in10.0 miWest (260°)6.9 mphMostly Cloudy
8:15 PM35.6 °F28.4 °F75 %30.23 in10.0 miWest (260°)5.8 mphClear
8:35 PM33.8 °F28.4 °F81 %30.24 in10.0 miWest (260°)5.8 mphClear
8:55 PM33.8 °F28.4 °F81 %30.25 in10.0 miWest (260°)6.9 mphClear
9:15 PM35.6 °F28.4 °F75 %30.25 in10.0 miWest (260°)8.1 mphScattered Clouds
9:35 PM35.6 °F28.4 °F75 %30.25 in10.0 miWest (260°)9.2 mphClear
9:55 PM33.8 °F28.4 °F81 %30.25 in10.0 miWest (260°)10.4 mphClear
10:15 PM33.8 °F28.4 °F81 %30.25 in10.0 miWest (270°)6.9 mphClear
10:35 PM33.8 °F28.4 °F81 %30.27 in10.0 miSSE (160°)10.4 mphClear
10:55 PM33.8 °F28.4 °F81 %30.28 in10.0 miCalmClear
11:15 PM32.0 °F28.4 °F87 %30.29 in10.0 miWest (270°)3.5 mphClear
11:35 PM32.0 °F28.4 °F87 %30.29 in10.0 miSouth (170°)5.8 mphScattered Clouds
11:55 PM32.0 °F28.4 °F87 %30.30 in10.0 miSSW (210°)8.1 mphScattered Clouds
Hourly data recorded from KSZT, located miles away from Clark Fork - East, Idaho







STORIES FROM OUR PARTNERS